Weather in Kapitanivka

Ukraine / Kirovohrad Region     48˚55′02″N   31˚43′11″E
temp.,
°C
wind,
m/s
gust,
m/s
humid.,
%
clouds,
%
prec.,
mm/h
press.,
hPa
HPBL,
m
28 november, sat
sat2823:00+3˚w2575100 0.0 1020157
02:00+3˚wnw2283100 0.0 101939
05:00+3˚ese0187100 0.0 101822
08:00+3˚wsw0186100 0.0 101827
11:00+4˚wsw1281100 0.0 1018218
14:00+5˚w1280100 0.0 1018430
17:00+4˚nw1184100 0.0 101849
20:00+4˚n2288100 0.0 1018170
29 november, sun
sun2923:00+3˚nnw2392100 0.0 1018247
02:00+3˚nw3396100 0.4 1018157
05:00+2˚nnw3496100 0.8 1018204
08:00+2˚nnw2396100 2.1 1019158
11:00+2˚nnw1195100 0.9 1020168
14:00+2˚e1196100 1.9 102095
17:00+3˚ene1194100 0.1 1020113
20:00+3˚ene2293100 0.4 1021140
30 november, mon
mon3023:00+2˚nnw2297100 1.3 1021113
02:00+2˚nw3596100 1.6 1022292
05:00+2˚n4596100 0.2 1022324
08:00+1˚n4696100 0.5 1023315
11:00+1˚n3596100 0.4 1024259
14:00+1˚n4696100 0.9 1024317
17:00n5898100 2.8 1025425
20:00n5899100 6.9 1026495
1 december, tue
tue123:00n4898100 2.5 1026458
02:00n81393100 3.3 1026487
05:00nne5998100 0.9 1026483
08:00−1˚n5997100 1.6 1026395
11:00n5899100 0.1 1026330
14:00+1˚n46100100 0.2 1026248
17:00+1˚n34100100 0.0 1026130
20:00+1˚ene2599100 0.1 1026191
2 december, wed
wed223:00ne2310099 0.0 1026142
02:00ne23100100 0.1 1026189
05:00ne24100100 0.1 1026221
08:00+1˚ne24100100 0.1 1026193
11:00+1˚ne23100100 0.1 1027188
14:00+1˚ne23100100 0.1 1026222
17:00+1˚ne24100100 0.1 1027188
20:00+1˚e35100100 0.3 1028218